Theta_e
351 349 349 350 347 344 343 341 347 346 347 345 343 342 342 339 336 337 336 335 336 333
350 350 347 349 347 341 344 343 345 345 344 343 342 340 340 335 336 337 338 333 336 336
347 347 347 345 342 343 344 343 344 343 342 339 339 339 339 338 338 337 338 331 329 336
344 343 342 342 343 343 343 342 339 337 336 336 337 339 339 338 336 335 332 330 332 333
341 342 342 341 342 342 339 337 336 335 335 335 335 338 337 333 333 332 326 325 325 328
340 340 340 340 339 338 336 336 336 336 335 334 334 334 333 333 332 330 326 323 323 327
337 338 338 338 337 336 336 336 336 336 334 334 334 333 334 332 333 330 327 324 326 326
336 337 337 336 336 335 336 335 335 335 334 336 334 332 331 333 332 327 324 323 325 326
335 335 335 335 334 335 335 335 335 334 332 334 331 307 310 318 331 327 325 324 325 328
334 333 332 332 332 333 335 337 335 335 333 333 331 304 306 311 333 331 327 325 324 326
332 331 331 331 331 334 336 336 336 334 334 333 325 303 303 311 332 328 323 323 323 321
331 331 329 328 332 334 334 334 335 334 334 330 328 303 304 318 326 323 323 325 323 322
332 331 330 332 333 334 335 334 332 333 333 318 328 301 303 319 325 325 322 321 318 306
333 333 333 334 334 334 334 333 333 333 331 328 326 320 302 308 326 323 322 321 319 311
Wind_Speed
13 10 11 11 12 10 10 10 12 10 9 8 9 7 7 7 6 7 7 9 7 5
12 13 12 13 10 9 9 9 10 10 9 8 8 7 7 6 7 7 8 5 6 6
14 14 13 12 11 11 10 10 10 9 7 7 7 7 7 6 6 7 6 4 7 7
14 14 13 12 11 11 10 10 9 8 8 7 7 6 6 5 6 9 5 5 6 6
14 13 13 12 11 10 10 9 9 8 7 7 6 6 6 6 7 7 10 6 2 3
14 13 12 11 11 10 10 10 9 8 7 5 4 4 5 7 4 8 7 6 5 4
12 12 11 11 11 11 10 10 8 6 5 3 3 3 5 2 6 8 8 7 6 6
12 12 11 11 11 10 9 8 7 6 5 2 1 3 4 2 4 5 6 7 5 6
12 11 11 11 11 10 9 7 7 6 4 5 5 5 5 7 5 6 6 6 6 5
11 11 10 11 12 10 8 7 6 6 6 6 7 5 5 8 6 6 5 4 4 4
10 11 11 12 11 9 8 8 6 7 7 6 6 4 2 2 6 7 5 4 5 5
10 12 11 10 10 9 8 7 6 7 8 7 7 3 3 1 7 6 5 6 4 7
10 11 11 10 10 9 7 7 6 7 8 7 8 2 2 6 5 8 6 7 7 8
11 11 11 10 8 8 8 8 7 8 8 7 7 5 3 6 5 6 7 6 6 4
Wind_Direction
151 153 147 148 137 147 158 155 155 167 174 178 183 189 195 196 208 196 207 212 228 245
141 142 122 127 143 146 132 128 152 159 167 175 187 188 183 219 200 204 207 231 229 229
129 124 129 135 133 137 128 136 151 156 163 170 177 186 202 207 219 214 207 195 243 222
125 129 133 133 134 134 136 144 150 152 158 169 181 192 215 222 225 213 157 190 235 235
129 131 134 134 131 138 138 147 146 153 166 174 187 198 227 225 215 184 167 165 82 252
134 134 135 132 135 138 144 144 150 154 159 176 202 214 232 235 175 163 162 149 170 228
135 136 134 133 141 144 146 149 152 147 138 153 208 238 267 251 207 194 186 161 173 217
134 135 135 140 147 147 150 146 141 132 120 138 59 22 8 114 121 152 160 164 179 218
138 141 141 145 146 152 146 146 144 128 116 87 75 18 349 329 113 118 132 156 177 206
141 139 147 157 154 156 144 151 133 120 98 96 95 32 17 311 102 124 122 133 144 159
152 146 147 155 159 137 151 152 132 119 99 108 86 36 6 40 92 86 92 111 141 142
149 154 159 160 143 149 151 144 146 116 104 111 109 34 333 91 91 91 89 101 141 148
152 155 162 151 158 154 163 161 129 116 102 103 123 82 8 103 122 99 98 93 78 81
146 153 152 153 152 159 180 139 137 123 108 121 130 123 64 118 130 117 104 94 91 82